(113810) = 2002 TG210

Discovered at Socorro on 2002-10-07 by LINEAR.

Orbit

Orbit type: Main Belt

Note: WebGL enabled browser required.

epoch2023-09-13.0
epoch JD2460200.5
perihelion date2019-11-11.43717
perihelion JD2458798.93717
argument of perihelion (°)273.41071
ascending node (°)36.86218
inclination (°)9.57803
eccentricity0.0838853
perihelion distance (AU)2.5001721
Tisserand w.r.t. Jupiter3.3
ΔV w.r.t. Earth (km/sec)10.3
semimajor axis (AU)2.7291038
mean anomaly (°)306.39829
mean daily motion (°/day)0.21861190
aphelion distance (AU)2.958
period (years)4.51
P-vector [x]0.63808116
P-vector [y]-0.62373124
P-vector [z]-0.45145517
Q-vector [x]0.76347174
Q-vector [y]0.58854051
Q-vector [z]0.26595294
absolute magnitude15.26
phase slope0.15
uncertainty0
referenceMPEC 2024-A34
observations used861
oppositions16
arc length (days)9899
first opposition used1996
last opposition used2023
residual rms (arc-secs)0.75
perturbers coarse indicatorM-v
perturbers precise indicator003Ek
first observation date used1996-04-17.0
last observation date used2023-05-25.0
computer nameMPCLINUX
JD of orbit computation2456937.309995
perihelion JD uncertainty (days)2.5457E-04
argument of perihelion uncertainty (°)6.0337E-05
ascending node uncertainty (°)2.7983E-05
inclination uncertainty (°)8.6315E-06
eccentricity uncertainty 4.2635E-08
perihelion distance uncertainty (AU)1.2374E-07
Minimum Orbit Intersection Distances (in AU)
for orbit epoch: 2460200.5, reference: E2024-A34
Mercury2.06125
Venus1.77912
Earth1.50869
Mars1.10803
Jupiter2.25009
Saturn6.1923
Uranus15.5528
Neptune27.1164

Observations

872 total observations over interval: 1996 04 17.23681 – 2023 05 25.293785
These data are available for download (format description).

Date (UT) J2000 RA J2000 Dec Magn Location Ref
1996 04 17.23681 14 50 05.57 -16 45 11.1 18.5   809 – European Southern Observatory, La Silla MPS 100866
1996 04 17.25000 14 50 04.89 -16 45 10.6   809 – European Southern Observatory, La Silla MPS 100866
1996 04 17.26319 14 50 04.22 -16 45 11.0   809 – European Southern Observatory, La Silla MPS 100866
2002 10 02.41143 02 59 52.21 +16 12 18.1 19.9   704 – Lincoln Laboratory ETS, New Mexico MPS 83033
2002 10 02.42706 02 59 51.65 +16 12 19.5 20.2   704 – Lincoln Laboratory ETS, New Mexico MPS 83033
2002 10 02.45827 02 59 50.73 +16 12 21.2 19.8   704 – Lincoln Laboratory ETS, New Mexico MPS 83033
2002 10 07.33215 02 56 56.20 +16 16 06.3 18.7   704 – Lincoln Laboratory ETS, New Mexico MPS 64171
2002 10 07.34876 02 56 55.55 +16 16 06.4 18.8   704 – Lincoln Laboratory ETS, New Mexico MPS 64171
2002 10 07.36428 02 56 54.90 +16 16 05.5 19.5   704 – Lincoln Laboratory ETS, New Mexico MPS 64171
2002 10 07.39537 02 56 53.63 +16 16 06.2 19.4   704 – Lincoln Laboratory ETS, New Mexico MPS 64171
2002 10 08.31119 02 56 16.95 +16 16 35.8 18.7 R 699 – Lowell Observatory-LONEOS MPS 64171
2002 10 08.32873 02 56 16.18 +16 16 36.2   699 – Lowell Observatory-LONEOS MPS 64171
2002 10 08.34632 02 56 15.54 +16 16 36.4   699 – Lowell Observatory-LONEOS MPS 64171
2002 10 08.36387 02 56 14.75 +16 16 37.0   699 – Lowell Observatory-LONEOS MPS 64171
2002 10 09.33504 02 55 34.35 +16 17 02.9 19.1   704 – Lincoln Laboratory ETS, New Mexico MPS 64171
2002 10 09.34988 02 55 33.62 +16 17 03.5 19.8   704 – Lincoln Laboratory ETS, New Mexico MPS 64171
2002 10 09.37932 02 55 32.33 +16 17 03.4 19.4   704 – Lincoln Laboratory ETS, New Mexico MPS 64171
2002 10 11.33979 02 54 06.94 +16 17 41.9 19.5   704 – Lincoln Laboratory ETS, New Mexico MPS 64171
2002 10 11.35568 02 54 06.10 +16 17 40.8 19.9   704 – Lincoln Laboratory ETS, New Mexico MPS 64171
2002 10 11.37160 02 54 05.41 +16 17 42.4 19.7   704 – Lincoln Laboratory ETS, New Mexico MPS 64171
2002 10 11.38735 02 54 04.67 +16 17 42.7 19.7   704 – Lincoln Laboratory ETS, New Mexico MPS 64171
2002 10 31.30386 02 35 59.36 +16 08 26.6 18.3 R 699 – Lowell Observatory-LONEOS MPS 68081
2002 10 31.32139 02 35 58.28 +16 08 26.5   699 – Lowell Observatory-LONEOS MPS 68081
2002 10 31.33893 02 35 57.21 +16 08 25.7   699 – Lowell Observatory-LONEOS MPS 68081
2002 10 31.35649 02 35 56.13 +16 08 24.2   699 – Lowell Observatory-LONEOS MPS 68081
2002 11 01.57985 02 34 42.32 +16 07 06.9 20.5   608 – Haleakala-AMOS MPS 66164
2002 11 01.59061 02 34 41.74 +16 07 06.7 20.3   608 – Haleakala-AMOS MPS 66164
2002 11 01.60155 02 34 41.02 +16 07 06.6 20.3   608 – Haleakala-AMOS MPS 66165
2002 11 05.22921 02 31 03.07 +16 03 00.0 18.8 V 291 – LPL/Spacewatch II MPS 66165
2002 11 05.25306 02 31 01.61 +16 02 58.4 19.2 V 291 – LPL/Spacewatch II MPS 66165
2002 11 05.27696 02 31 00.13 +16 02 56.8 19.1 V 291 – LPL/Spacewatch II MPS 66165
2002 11 06.23984 02 30 02.61 +16 01 48.0 18.4   704 – Lincoln Laboratory ETS, New Mexico MPS 66165
2002 11 06.25649 02 30 01.56 +16 01 47.0 19.3   704 – Lincoln Laboratory ETS, New Mexico MPS 66165
2002 11 06.27315 02 30 00.55 +16 01 45.4 19.1   704 – Lincoln Laboratory ETS, New Mexico MPS 66165
2002 11 06.28982 02 29 59.53 +16 01 44.5 18.6   704 – Lincoln Laboratory ETS, New Mexico MPS 66165
2002 11 06.30652 02 29 58.49 +16 01 43.1 19.2   704 – Lincoln Laboratory ETS, New Mexico MPS 66165
2002 11 12.29063 02 24 09.40 +15 54 28.0 19.6   644 – Palomar Mountain/NEAT MPS 66165
2002 11 12.31151 02 24 08.17 +15 54 26.4 20.1   644 – Palomar Mountain/NEAT MPS 66165
2002 11 12.33259 02 24 06.96 +15 54 24.9 19.2   644 – Palomar Mountain/NEAT MPS 66165
2002 12 05.14717 02 07 15.31 +15 37 23.2 19.3 C 704 – Lincoln Laboratory ETS, New Mexico MPS 291195
2002 12 05.16221 02 07 14.91 +15 37 23.1 19.2 C 704 – Lincoln Laboratory ETS, New Mexico MPS 291195
2002 12 05.17732 02 07 14.40 +15 37 22.5 19.1 C 704 – Lincoln Laboratory ETS, New Mexico MPS 291195
2002 12 05.19242 02 07 13.96 +15 37 22.7 19.4 C 704 – Lincoln Laboratory ETS, New Mexico MPS 291195
2002 12 05.20741 02 07 13.47 +15 37 22.8 19.6 C 704 – Lincoln Laboratory ETS, New Mexico MPS 291195
2003 12 28.35569 09 35 28.24 +28 16 25.6 19.5   704 – Lincoln Laboratory ETS, New Mexico MPS 98784
2003 12 28.36897 09 35 27.92 +28 16 30.2 19.6   704 – Lincoln Laboratory ETS, New Mexico MPS 98784
2003 12 28.38228 09 35 27.63 +28 16 34.4 19.9   704 – Lincoln Laboratory ETS, New Mexico MPS 98784
2003 12 28.39560 09 35 27.42 +28 16 38.3 20.2   704 – Lincoln Laboratory ETS, New Mexico MPS 98784
2004 01 31.28347 09 09 53.43 +31 16 54.3 18.8   704 – Lincoln Laboratory ETS, New Mexico MPS 98784
2004 01 31.29670 09 09 52.56 +31 16 57.0 19.7   704 – Lincoln Laboratory ETS, New Mexico MPS 98784
2004 01 31.30911 09 09 51.79 +31 17 01.2 19.6   704 – Lincoln Laboratory ETS, New Mexico MPS 98784
2004 01 31.32387 09 09 50.74 +31 17 05.3 19.9   704 – Lincoln Laboratory ETS, New Mexico MPS 98784
2004 02 02.29804 09 07 50.38 +31 24 38.3 19.7   704 – Lincoln Laboratory ETS, New Mexico MPS 98784
2004 02 02.31051 09 07 49.63 +31 24 40.4 19.5   704 – Lincoln Laboratory ETS, New Mexico MPS 98784
2004 02 02.32294 09 07 48.94 +31 24 44.2 19.9   704 – Lincoln Laboratory ETS, New Mexico MPS 98784
2004 02 02.33532 09 07 48.10 +31 24 45.8 20.0   704 – Lincoln Laboratory ETS, New Mexico MPS 98784
2005 04 02.45831 14 54 36.72 -15 58 45.9 18.8 R G96 – Mt. Lemmon Survey MPS 130713
2005 04 02.46365 14 54 36.53 -15 58 46.2 18.4 R G96 – Mt. Lemmon Survey MPS 130713
2005 04 02.46897 14 54 36.33 -15 58 46.5 18.6 R G96 – Mt. Lemmon Survey MPS 130713
2005 04 02.47432 14 54 36.15 -15 58 46.9 18.8 R G96 – Mt. Lemmon Survey MPS 130713
2005 04 07.41050 14 51 31.53 -16 01 26.8 19.4 V 691 – Steward Observatory, Kitt Peak-Spacewatch MPS 130713
2005 04 07.42847 14 51 30.77 -16 01 27.2 19.4 V 691 – Steward Observatory, Kitt Peak-Spacewatch MPS 130713
2005 04 07.44639 14 51 30.02 -16 01 27.5 19.5 V 691 – Steward Observatory, Kitt Peak-Spacewatch MPS 130713
2005 04 15.25607 14 45 33.26 -16 01 54.9 19.0   I10 – CAO, San Pedro de Atacama (until 2012) MPS 132582
2005 04 15.27651 14 45 32.27 -16 01 53.2 18.8   I10 – CAO, San Pedro de Atacama (until 2012) MPS 132582
2005 04 15.29700 14 45 31.17 -16 01 53.8 19.3   I10 – CAO, San Pedro de Atacama (until 2012) MPS 132582
2005 04 18.32122 14 42 55.57 -16 01 06.4 18.5 R 703 – Catalina Sky Survey MPS 132582
2005 04 18.32765 14 42 55.29 -16 01 05.9 18.4 R 703 – Catalina Sky Survey MPS 132582
2005 04 18.33407 14 42 55.00 -16 01 05.4 19.0 R 703 – Catalina Sky Survey MPS 132582
2005 04 18.33437 14 42 54.98 -16 01 04.7 19.0   704 – Lincoln Laboratory ETS, New Mexico MPS 132582
2005 04 18.34052 14 42 54.60 -16 01 05.6 18.7 R 703 – Catalina Sky Survey MPS 132582
2005 04 18.35278 14 42 53.97 -16 01 03.6 19.1   704 – Lincoln Laboratory ETS, New Mexico MPS 132582
2005 04 18.36190 14 42 53.55 -16 01 03.2 18.6   704 – Lincoln Laboratory ETS, New Mexico MPS 132582
2005 05 04.28550 14 27 47.61 -15 48 52.9 18.1 R 699 – Lowell Observatory-LONEOS MPS 133304
2005 05 04.30196 14 27 46.56 -15 48 51.0   699 – Lowell Observatory-LONEOS MPS 133304
2005 05 04.31842 14 27 45.69 -15 48 51.3   699 – Lowell Observatory-LONEOS MPS 133304
2005 05 04.33488 14 27 44.67 -15 48 50.8   699 – Lowell Observatory-LONEOS MPS 133304
2005 05 09.26566 14 23 00.43 -15 43 40.5 18.5   704 – Lincoln Laboratory ETS, New Mexico MPS 133956
2005 05 09.27672 14 22 59.80 -15 43 39.7 18.8   704 – Lincoln Laboratory ETS, New Mexico MPS 133956
2005 05 09.29112 14 22 58.92 -15 43 38.9 19.0   704 – Lincoln Laboratory ETS, New Mexico MPS 133956
2005 05 09.30646 14 22 58.03 -15 43 37.7 19.4   704 – Lincoln Laboratory ETS, New Mexico MPS 133956
2005 05 13.28575 14 19 16.95 -15 39 31.6 19.5   704 – Lincoln Laboratory ETS, New Mexico MPS 134815
2005 05 13.29674 14 19 16.41 -15 39 31.0 19.6   704 – Lincoln Laboratory ETS, New Mexico MPS 134815
2005 05 13.31464 14 19 15.39 -15 39 29.9 19.3   704 – Lincoln Laboratory ETS, New Mexico MPS 134815
2005 05 14.31773 14 18 21.43 -15 38 31.5 18.1 R G96 – Mt. Lemmon Survey MPS 134815
2005 05 14.32563 14 18 20.96 -15 38 31.2 18.1 R G96 – Mt. Lemmon Survey MPS 134815
2005 05 14.33359 14 18 20.54 -15 38 30.6 18.2 R G96 – Mt. Lemmon Survey MPS 134815
